1485968400.07,53105,9.44,73346.5,-6.91,-7.99,-8.11,0,*53
1485968401.34,53106,9.44,73346.8,-6.91,-8.11,-8.11,0,*5F
1485968402.62,53107,9.44,73348.3,-6.91,-8.03,-8.11,0,*5D
1485968403.89,53108,9.44,73346.8,-6.91,-8.03,-8.11,0,*52
1485968405.16,53109,9.44,73346.8,-6.91,-8.03,-8.11,0,*53
1485968406.44,53110,9.44,73350.5,-6.91,-8.03,-8.11,0,*5B
1485968407.68,53111,9.44,73344.3,-6.91,-8.03,-8.17,0,*5C
1485968408.93,53112,9.44,73332.5,-6.91,-8.11,-8.17,0,*5C
1485968410.18,53113,9.44,73334.3,-6.91,-8.03,-8.25,0,*5F
1485968411.45,53114,9.44,73328.0,-6.91,-8.03,-8.03,0,*5C
1485968412.7,53115,9.44,73326.5,-6.91,-8.11,-8.17,0,*5B
1485968413.93,53116,9.44,73316.0,-6.91,-8.29,-8.37,0,*51
1485968415.15,53117,9.44,73318.8,-6.87,-8.25,-8.25,0,*58
1485968416.4,53118,9.44,73322.3,-6.91,-8.11,-8.17,0,*56
1485968417.66,53119,9.44,73324.5,-6.91,-8.11,-8.17,0,*57
1485968418.88,53120,9.44,73320.0,-6.91,-8.17,-8.17,0,*5B
1485968420.11,53121,9.44,73324.5,-6.91,-8.25,-8.25,0,*5A
1485968421.33,53122,9.44,73326.3,-6.91,-8.25,-8.29,0,*55
1485968422.56,53123,9.44,73322.5,-6.91,-8.25,-8.41,0,*5A
1485968423.81,53124,9.44,73332.5,-6.91,-8.37,-8.51,0,*5F
1485968425.06,53125,9.44,73330.0,-6.91,-8.37,-8.51,0,*5E
1485968426.28,53126,9.44,73324.3,-6.93,-8.55,-8.71,0,*59
1485968427.5,53127,9.44,73322.8,-6.93,-8.55,-8.67,0,*5F
1485968428.72,53128,9.44,73324.0,-6.93,-8.55,-8.67,0,*50
1485968429.93,53129,9.44,73318.0,-6.93,-8.55,-8.67,0,*51
1485968431.19,53130,9.44,73316.5,-6.91,-8.51,-8.63,0,*5B
1485968432.43,53131,9.44,73318.8,-6.91,-8.51,-8.55,0,*5F
1485968433.65,53132,9.44,73322.5,-6.91,-8.41,-8.55,0,*5D
1485968434.93,53133,9.44,73336.8,-6.91,-8.51,-8.51,0,*59
1485968436.21,53134,9.44,73328.5,-6.91,-8.51,-8.51,0,*5E
1485968437.46,53135,9.44,73316.8,-6.91,-8.51,-8.67,0,*5A
1485968438.67,53136,9.44,73316.3,-6.93,-8.67,-8.75,0,*5D
1485968439.91,53137,9.44,73320.5,-6.91,-8.71,-8.85,0,*56
1485968441.15,53138,9.44,73326.0,-6.87,-8.75,-8.81,0,*5E
1485968442.38,53139,9.44,73338.0,-6.91,-8.97,-9.05,0,*59
1485968443.64,53140,9.44,73334.0,-6.91,-9.05,-9.11,0,*58
1485968444.89,53141,9.44,73316.5,-6.91,-8.97,-9.11,0,*53
1485968446.12,53142,9.44,73300.3,-6.91,-9.05,-9.19,0,*52
1485968447.35,53143,9.44,73320.5,-6.91,-8.93,-9.05,0,*50
1485968448.58,53144,9.44,73298.8,-6.91,-8.93,-8.97,0,*5D
1485968449.84,53145,9.44,73314.0,-6.91,-8.97,-9.11,0,*57
1485968451.09,53146,9.38,73314.3,-6.91,-9.11,-9.19,0,*53
1485968452.35,53147,9.44,73324.5,-6.91,-9.11,-9.19,0,*52
1485968453.63,53148,9.44,73312.8,-6.91,-9.11,-9.11,0,*55
1485968454.86,53149,9.44,73314.8,-6.91,-9.23,-9.05,0,*50
1485968456.15,53150,9.44,73318.3,-6.91,-9.11,-9.11,0,*5C
1485968457.38,53151,9.44,73336.8,-6.91,-9.05,-9.05,0,*5D
1485968458.61,53152,9.44,73338.8,-6.87,-8.93,-8.89,0,*52
1485968459.86,53153,9.44,73338.0,-6.91,-8.93,-8.81,0,*5C
1485968461.09,53154,9.44,73334.3,-6.91,-8.97,-8.97,0,*58
1485968462.35,53155,9.44,73338.0,-6.91,-9.11,-8.93,0,*52
1485968463.61,53156,9.44,73342.0,-6.91,-9.11,-8.97,0,*55
1485968464.83,53157,9.44,73338.8,-6.91,-9.19,-8.97,0,*5C
1485968466.06,53158,9.44,73340.3,-6.91,-9.23,-9.05,0,*50
1485968467.31,53159,9.44,73342.5,-6.91,-9.37,-9.23,0,*50
1485968468.59,53160,9.44,73334.5,-6.91,-9.53,-9.37,0,*5D
1485968469.84,53161,9.44,73330.8,-6.91,-9.75,-9.61,0,*5B
1485968471.11,53162,9.44,73318.3,-6.87,-9.61,-9.61,0,*5A
1485968472.39,53163,9.44,73324.0,-6.91,-9.49,-9.49,0,*5C
1485968473.64,53164,9.44,73340.3,-6.87,-9.27,-9.41,0,*5C
1485968474.86,53165,9.44,73340.3,-6.91,-9.19,-9.31,0,*50
1485968476.09,53166,9.44,73350.5,-6.91,-9.23,-9.31,0,*5A
1485968477.34,53167,9.44,73348.8,-6.91,-9.31,-9.37,0,*5E
1485968478.62,53168,9.44,73346.0,-6.91,-9.45,-9.49,0,*5B
1485968479.84,53169,9.44,73334.0,-6.91,-9.89,-9.75,0,*55
1485968481.05,53170,9.44,73326.5,-6.95,-10.19,-10.09,0,*5B
1485968482.27,53171,9.44,73326.8,-6.93,-10.09,-9.79,0,*62
1485968483.53,53172,9.38,73328.8,-6.93,-10.19,-9.83,0,*65
1485968484.8,53173,9.44,73332.5,-6.93,-10.67,-10.19,0,*56
1485968486.06,53174,9.44,73338.8,-6.93,-10.63,-10.09,0,*54
1485968487.32,53175,9.44,73340.0,-6.91,-10.41,-9.79,0,*68
1485968488.56,53176,9.44,73338.0,-6.91,-10.31,-9.93,0,*68
1485968489.81,53177,9.44,73338.0,-6.91,-10.05,-9.61,0,*63
1485968491.03,53178,9.44,73350.3,-6.91,-9.67,-9.31,0,*55
1485968492.28,53179,9.44,73354.3,-6.91,-9.37,-9.23,0,*52
1485968493.51,53180,9.44,73362.5,-6.91,-9.05,-8.97,0,*5B
1485968494.74,53181,9.44,73360.3,-6.93,-9.01,-8.85,0,*5F
1485968495.96,53182,9.44,73356.5,-6.93,-8.75,-8.71,0,*55
1485968497.18,53183,9.44,73346.8,-6.93,-8.59,-8.45,0,*5D
1485968498.4,53184,9.44,73350.0,-6.93,-8.59,-8.55,0,*5B
1485968499.62,53185,9.44,73350.0,-6.93,-8.59,-8.45,0,*5B
1485968500.88,53186,9.44,73344.8,-6.91,-8.51,-8.37,0,*57
1485968502.11,53187,9.44,73348.5,-6.87,-8.37,-8.25,0,*52
1485968503.33,53188,9.44,73348.0,-6.91,-8.37,-8.25,0,*5A
1485968504.56,53189,9.44,73346.0,-6.91,-8.29,-8.17,0,*55
1485968505.78,53190,9.44,73342.3,-6.91,-8.29,-8.25,0,*5C
1485968507.03,53191,9.44,73336.8,-6.91,-8.17,-8.03,0,*54
1485968508.28,53192,9.44,73336.3,-6.91,-8.11,-8.17,0,*54
1485968509.56,53193,9.44,73334.0,-6.91,-8.11,-8.11,0,*53
1485968510.83,53194,9.44,73334.5,-6.91,-8.03,-7.99,0,*58
1485968512.1,53195,9.44,73332.0,-6.91,-7.91,-7.91,0,*55
1485968513.38,53196,9.44,73330.8,-6.87,-7.95,-7.95,0,*51
1485968514.63,53197,9.44,73324.8,-6.91,-7.99,-7.87,0,*58
1485968515.9,53198,9.44,73332.5,-6.91,-7.91,-7.91,0,*58
1485968517.17,53199,9.44,73336.0,-6.91,-7.91,-7.99,0,*51
1485968518.45,53200,9.44,73332.8,-6.91,-7.91,-7.99,0,*52
1485968519.72,53201,9.44,73332.5,-6.91,-7.91,-7.99,0,*53
1485968521.0,53202,9.44,73326.8,-6.87,-8.07,-7.95,0,*5B
1485968522.22,53203,9.44,73332.0,-6.91,-8.25,-8.25,0,*59
1485968523.45,53204,9.38,73328.0,-6.91,-8.37,-8.41,0,*5F
1485968524.68,53205,9.44,73332.8,-6.87,-8.45,-8.45,0,*58
1485968525.89,53206,9.44,73332.5,-6.93,-8.67,-8.59,0,*53
1485968527.12,53207,9.44,73328.0,-6.91,-8.63,-8.55,0,*58
1485968528.33,53208,9.44,73330.8,-6.93,-8.67,-8.59,0,*5D
1485968529.55,53209,9.44,73328.0,-6.93,-8.67,-8.59,0,*5C
1485968530.77,53210,9.44,73332.0,-6.93,-8.45,-8.45,0,*59
1485968531.99,53211,9.44,73336.0,-6.93,-8.33,-8.29,0,*53
1485968533.21,53212,9.44,73348.3,-6.93,-8.21,-8.21,0,*5B
1485968534.43,53213,9.44,73346.3,-6.93,-8.29,-8.29,0,*5A
1485968535.65,53214,9.44,73344.0,-6.93,-8.21,-8.29,0,*55
1485968536.87,53215,9.44,73336.0,-6.93,-8.17,-8.21,0,*59
1485968538.15,53216,9.44,73324.3,-6.91,-8.11,-8.11,0,*5D
1485968539.38,53217,9.44,73320.3,-6.91,-8.37,-8.41,0,*5D
1485968540.61,53218,9.44,73330.0,-6.91,-8.37,-8.37,0,*53
1485968541.84,53219,9.38,73338.5,-6.91,-8.25,-8.25,0,*52
1485968543.12,53220,9.44,73348.0,-6.91,-8.11,-8.11,0,*58
1485968544.31,53221,9.44,73344.3,-6.95,-8.17,-8.17,0,*5D
1485968545.53,53222,9.44,73352.3,-6.93,-8.29,-8.29,0,*58
1485968546.75,53223,9.44,73346.0,-6.93,-8.21,-8.17,0,*5C
1485968547.97,53224,9.44,73342.0,-6.93,-8.21,-8.21,0,*5E
1485968549.19,53225,9.44,73336.3,-6.93,-8.17,-8.21,0,*5A
1485968550.41,53226,9.44,73342.5,-6.93,-8.33,-8.21,0,*5F
1485968551.63,53227,9.44,73332.0,-6.93,-8.21,-8.21,0,*5D
1485968552.85,53228,9.44,73334.0,-6.93,-8.41,-8.33,0,*57
1485968554.08,53229,9.44,73334.0,-6.93,-8.45,-8.41,0,*57
1485968555.3,53230,9.44,73328.5,-6.93,-8.45,-8.45,0,*5B
1485968556.52,53231,9.44,73340.3,-6.93,-8.55,-8.55,0,*5A
1485968557.71,53232,9.44,73346.8,-6.95,-8.45,-8.55,0,*5E
1485968558.93,53233,9.44,73336.3,-6.93,-8.41,-8.41,0,*58
1485968560.15,53234,9.44,73342.0,-6.93,-8.41,-8.41,0,*5F
1485968561.37,53235,9.38,73342.8,-6.93,-8.41,-8.33,0,*5B
1485968562.56,53236,9.38,73344.8,-6.95,-8.33,-8.33,0,*5B
1485968563.77,53237,9.38,73346.5,-6.93,-8.33,-8.29,0,*57
1485968564.96,53238,9.44,73348.8,-6.95,-8.33,-8.21,0,*56
1485968566.19,53239,9.38,73342.5,-6.93,-8.41,-8.29,0,*5C
1485968567.37,53240,9.44,73344.8,-6.95,-8.33,-8.29,0,*51
1485968568.59,53241,9.38,73344.3,-6.93,-8.21,-8.17,0,*58
1485968569.79,53242,9.38,73336.8,-6.95,-8.21,-8.21,0,*58
1485968571.01,53243,9.38,73340.8,-6.93,-8.29,-8.29,0,*5F
1485968572.23,53244,9.44,73344.8,-6.93,-8.29,-8.29,0,*58
1485968573.45,53245,9.38,73340.3,-6.93,-8.21,-8.21,0,*59
1485968574.67,53246,9.38,73342.8,-6.93,-8.29,-8.29,0,*5A
1485968575.86,53247,9.44,73344.3,-6.95,-8.21,-8.17,0,*58
1485968577.08,53248,9.44,73352.5,-6.93,-8.21,-8.17,0,*51
1485968578.3,53249,9.38,73348.8,-6.93,-8.29,-8.21,0,*5D
1485968579.52,53250,9.44,73344.8,-6.93,-8.21,-8.21,0,*5D
1485968580.74,53251,9.44,73348.3,-6.93,-8.21,-8.21,0,*5C
1485968581.97,53252,9.44,73348.8,-6.93,-8.29,-8.21,0,*57
1485968583.16,53253,9.38,73344.8,-6.95,-8.21,-8.17,0,*5D
1485968584.38,53254,9.44,73346.8,-6.93,-8.21,-8.17,0,*5C
1485968585.63,53255,9.38,73340.3,-6.93,-8.17,-8.07,0,*59
1485968586.85,53256,9.38,73334.3,-6.93,-8.17,-8.17,0,*5B
1485968588.1,53257,9.38,73332.3,-6.93,-8.07,-8.17,0,*5B
1485968589.32,53258,9.38,73344.5,-6.93,-8.41,-8.41,0,*55
1485968590.54,53259,9.44,73350.3,-6.93,-8.33,-8.41,0,*51
1485968591.73,53260,9.44,73350.5,-6.95,-8.33,-8.33,0,*58
1485968592.95,53261,9.38,73352.0,-6.93,-8.21,-8.21,0,*5F
1485968594.14,53262,9.38,73350.3,-6.95,-8.21,-8.29,0,*52
1485968595.36,53263,9.38,73350.3,-6.93,-8.17,-8.17,0,*5D
1485968596.58,53264,9.44,73352.5,-6.93,-8.17,-8.17,0,*5A
1485968597.8,53265,9.44,73354.8,-6.95,-8.07,-8.17,0,*5C
1485968599.09,53266,9.44,73354.5,-6.93,-8.07,-8.07,0,*58
1485968600.31,53267,9.38,73348.5,-6.95,-8.07,-8.17,0,*5E
1485968601.59,53268,9.44,73348.5,-6.93,-8.07,-8.07,0,*56
1485968602.86,53269,9.44,73350.0,-6.93,-8.03,-7.95,0,*57
1485968604.12,53270,9.38,73340.8,-6.93,-8.03,-7.95,0,*5F
1485968605.39,53271,9.44,73342.8,-6.93,-7.95,-7.95,0,*5E
1485968606.66,53272,9.38,73346.3,-6.93,-7.91,-7.95,0,*59
1485968607.93,53273,9.38,73340.3,-6.93,-7.95,-7.91,0,*58
1485968609.17,53274,9.44,73340.5,-6.95,-7.95,-8.03,0,*5D
1485968610.43,53275,9.38,73336.8,-6.93,-8.03,-8.03,0,*5A
1485968611.71,53276,9.38,73332.8,-6.93,-8.07,-8.03,0,*5D
1485968612.99,53277,9.44,73338.3,-6.93,-8.07,-8.07,0,*58
1485968614.21,53278,9.38,73336.8,-6.93,-8.17,-8.29,0,*5A
1485968615.42,53279,9.38,73338.0,-6.93,-8.29,-8.33,0,*5D
1485968616.62,53280,9.38,73336.3,-6.95,-8.21,-8.21,0,*56
1485968617.89,53281,9.38,73348.3,-6.93,-8.07,-8.03,0,*55
1485968619.16,53282,9.38,73354.0,-6.93,-8.03,-8.03,0,*52
1485968620.44,53283,9.44,73356.5,-6.93,-8.07,-8.07,0,*53
1485968621.7,53284,9.38,73354.3,-6.93,-8.03,-8.03,0,*54
1485968622.97,53285,9.38,73356.0,-6.93,-8.03,-8.03,0,*55
1485968624.22,53286,9.38,73360.0,-6.93,-8.17,-8.07,0,*57
1485968625.51,53287,9.38,73364.8,-6.93,-8.07,-8.07,0,*57
1485968626.77,53288,9.38,73354.8,-6.93,-7.91,-7.95,0,*5C
1485968628.05,53289,9.44,73362.3,-6.91,-7.99,-7.99,0,*5B
1485968629.27,53290,9.44,73358.5,-6.93,-8.21,-8.21,0,*51
1485968630.52,53291,9.44,73358.3,-6.93,-8.17,-8.07,0,*51
1485968631.79,53292,9.44,73368.8,-6.91,-8.03,-8.03,0,*51
1485968633.01,53293,9.44,73358.3,-6.93,-8.29,-8.29,0,*52
1485968634.23,53294,9.38,73344.5,-6.93,-8.29,-8.33,0,*5E
1485968635.42,53295,9.38,73350.0,-6.95,-8.21,-8.21,0,*52
1485968636.64,53296,9.38,73356.0,-6.93,-8.21,-8.21,0,*57
1485968637.86,53297,9.38,73344.8,-6.93,-8.21,-8.17,0,*53
1485968639.09,53298,9.44,73348.8,-6.91,-8.17,-8.25,0,*5A
1485968640.31,53299,9.38,73340.0,-6.93,-8.21,-8.29,0,*50
1485968641.52,53300,9.38,73332.3,-6.93,-8.29,-8.33,0,*52
1485968642.74,53301,9.38,73336.0,-6.93,-8.41,-8.33,0,*5D
1485968643.95,53302,9.38,73332.5,-6.93,-8.33,-8.33,0,*5B
1485968645.16,53303,9.38,73336.3,-6.93,-8.33,-8.33,0,*5A
1485968646.38,53304,9.38,73338.0,-6.93,-8.21,-8.29,0,*55
1485968647.57,53305,9.38,73346.3,-6.95,-8.29,-8.29,0,*5A
1485968648.79,53306,9.44,73348.0,-6.93,-8.29,-8.33,0,*54
1485968649.98,53307,9.38,73346.3,-6.95,-8.33,-8.41,0,*5D
1485968651.16,53308,9.38,73338.0,-6.95,-8.33,-8.33,0,*57
1485968652.38,53309,9.38,73334.5,-6.93,-8.33,-8.41,0,*55
1485968653.59,53310,9.38,73320.8,-6.93,-8.33,-8.33,0,*58
1485968654.81,53311,9.44,73320.8,-6.93,-8.41,-8.41,0,*59
1485968656.0,53312,9.38,73312.8,-6.95,-8.33,-8.41,0,*59
1485968657.19,53313,9.38,73320.0,-6.95,-8.33,-8.29,0,*56
1485968658.38,53314,9.38,73322.3,-6.95,-8.29,-8.33,0,*51
1485968659.6,53315,9.38,73322.3,-6.93,-8.29,-8.29,0,*5D
1485968660.82,53316,9.38,73324.3,-6.93,-8.21,-8.21,0,*5E
1485968662.04,53317,9.38,73324.8,-6.95,-8.07,-8.17,0,*58
1485968663.23,53318,9.38,73330.8,-6.95,-8.29,-8.17,0,*5B
1485968664.43,53319,9.38,73324.8,-6.95,-8.21,-8.17,0,*52
1485968665.62,53320,9.38,73326.5,-6.95,-8.21,-8.17,0,*58
1485968666.81,53321,9.38,73326.3,-6.95,-8.17,-8.17,0,*5C
1485968668.06,53322,9.38,73324.5,-6.93,-8.07,-8.17,0,*58
1485968669.26,53323,9.38,73324.5,-6.95,-8.21,-8.17,0,*5B
1485968670.49,53324,9.38,73328.0,-6.95,-8.17,-8.07,0,*58
1485968671.71,53325,9.38,73324.0,-6.95,-8.07,-8.17,0,*59
1485968672.9,53326,9.38,73322.8,-6.95,-8.21,-8.21,0,*5B
1485968674.1,53327,9.38,73328.5,-6.95,-8.29,-8.29,0,*5A
1485968675.28,53328,9.38,73328.0,-6.95,-8.33,-8.29,0,*5E
1485968676.48,53329,9.38,73322.0,-6.95,-8.45,-8.45,0,*54
1485968677.68,53330,9.38,73326.5,-6.95,-8.55,-8.55,0,*5C
1485968678.87,53331,9.38,73330.3,-6.95,-8.45,-8.55,0,*5C
1485968680.07,53332,9.38,73340.3,-6.99,-8.37,-8.37,0,*52
1485968681.27,53333,9.38,73328.0,-6.99,-8.45,-8.45,0,*53
1485968682.47,53334,9.38,73324.0,-6.99,-8.45,-8.37,0,*51
1485968683.67,53335,9.38,73316.3,-6.99,-8.37,-8.37,0,*55
1485968684.87,53336,9.38,73314.8,-6.99,-8.37,-8.37,0,*56
1485968686.07,53337,9.38,73312.8,-6.99,-8.37,-8.33,0,*53
1485968687.26,53338,9.38,73318.8,-6.99,-8.25,-8.21,0,*5C
1485968688.46,53339,9.38,73328.3,-6.99,-8.21,-8.21,0,*59
1485968689.65,53340,9.38,73324.0,-6.99,-8.21,-8.25,0,*53
1485968690.85,53341,9.38,73324.3,-6.99,-8.25,-8.25,0,*56
1485968692.07,53342,9.38,73326.3,-6.95,-8.07,-8.21,0,*5D
1485968693.27,53343,9.38,73322.5,-6.95,-8.17,-8.21,0,*5D
1485968694.47,53344,9.38,73326.0,-6.95,-8.21,-8.21,0,*5F
1485968695.66,53345,9.38,73330.0,-6.95,-8.17,-8.17,0,*5E
1485968696.86,53346,9.38,73334.0,-6.95,-8.17,-8.17,0,*5D
1485968698.05,53347,9.38,73336.3,-6.95,-8.21,-8.21,0,*5C
1485968699.25,53348,9.38,73342.5,-6.95,-8.21,-8.17,0,*56
1485968700.45,53349,9.38,73342.3,-6.95,-8.17,-8.21,0,*57
1485968701.67,53350,9.38,73346.0,-6.95,-8.17,-8.07,0,*5B
1485968702.93,53351,9.38,73344.0,-6.95,-8.07,-8.07,0,*5B
1485968704.13,53352,9.38,73340.0,-6.95,-8.17,-8.17,0,*58
1485968705.38,53353,9.38,73340.5,-6.95,-8.07,-8.07,0,*59
1485968706.58,53354,9.38,73342.8,-6.95,-8.17,-8.17,0,*5E
1485968707.83,53355,9.38,73340.8,-6.95,-8.07,-8.07,0,*5F
1485968709.12,53356,9.38,73342.8,-6.93,-8.07,-8.07,0,*5A
1485968710.36,53357,9.38,73340.8,-6.95,-8.07,-8.03,0,*59
1485968711.62,53358,9.38,73338.3,-6.95,-8.07,-8.07,0,*52
1485968712.84,53359,9.38,73340.0,-6.95,-8.07,-8.17,0,*52
1485968714.04,53360,9.38,73336.8,-6.95,-8.17,-8.17,0,*59
1485968715.23,53361,9.38,73338.3,-6.95,-8.17,-8.17,0,*58
1485968716.46,53362,9.38,73338.3,-6.95,-8.17,-8.07,0,*5A
1485968717.7,53363,9.38,73336.5,-6.95,-7.95,-8.03,0,*5A
1485968718.94,53364,9.38,73340.5,-6.95,-8.03,-7.95,0,*5D
1485968720.18,53365,9.38,73340.3,-6.95,-8.03,-7.95,0,*5C
1485968721.44,53366,9.38,73336.0,-6.93,-8.17,-8.07,0,*58
1485968722.69,53367,9.38,73334.8,-6.93,-8.07,-8.17,0,*59
1485968723.94,53368,9.38,73332.8,-6.95,-8.07,-8.07,0,*51
1485968725.17,53369,9.38,73334.8,-6.95,-8.17,-8.07,0,*51
1485968726.37,53370,9.38,73324.5,-6.95,-8.17,-8.21,0,*5D
1485968727.59,53371,9.38,73328.0,-6.93,-8.21,-8.21,0,*5F
1485968728.79,53372,9.38,73328.8,-6.95,-8.17,-8.17,0,*5A
1485968730.04,53373,9.38,73326.0,-6.95,-8.07,-8.07,0,*5B
1485968731.28,53374,9.38,73328.5,-6.95,-8.03,-8.03,0,*5C
1485968732.54,53375,9.38,73332.3,-6.95,-8.07,-8.07,0,*5D
1485968733.79,53376,9.38,73332.3,-6.93,-8.17,-8.07,0,*59
1485968735.05,53377,9.38,73334.0,-6.93,-8.17,-8.07,0,*58
1485968736.31,53378,9.38,73340.8,-6.93,-8.03,-8.03,0,*56
1485968737.59,53379,9.38,73342.0,-6.93,-8.07,-8.03,0,*53
1485968738.85,53380,9.38,73342.0,-6.93,-8.03,-7.95,0,*51
1485968740.11,53381,9.38,73346.0,-6.93,-8.03,-8.03,0,*50
1485968741.35,53382,9.38,73348.0,-6.95,-8.03,-8.03,0,*55
1485968742.61,53383,9.38,73346.0,-6.95,-8.07,-8.07,0,*54
1485968743.88,53384,9.38,73350.8,-6.93,-8.07,-8.03,0,*51
1485968745.1,53385,9.38,73344.3,-6.93,-8.17,-8.17,0,*54
1485968746.3,53386,9.38,73344.0,-6.95,-8.17,-8.17,0,*51
1485968747.52,53387,9.38,73348.3,-6.95,-8.07,-8.17,0,*51
1485968748.74,53388,9.38,73352.3,-6.93,-8.17,-8.17,0,*59
1485968749.96,53389,9.38,73352.5,-6.95,-8.03,-8.17,0,*5B
1485968751.22,53390,9.38,73350.8,-6.95,-8.07,-8.07,0,*56
1485968752.5,53391,9.38,73344.0,-6.93,-8.07,-8.07,0,*51
1485968753.77,53392,9.38,73340.0,-6.93,-8.07,-8.03,0,*56
1485968754.99,53393,9.38,73338.0,-6.93,-8.21,-8.21,0,*53
1485968756.21,53394,9.38,73338.3,-6.93,-8.21,-8.29,0,*5C
1485968757.4,53395,9.38,73336.5,-6.95,-8.21,-8.29,0,*5B
1485968758.59,53396,9.38,73330.8,-6.95,-8.29,-8.29,0,*50
1485968759.82,53397,9.38,73332.8,-6.93,-8.29,-8.21,0,*5F
1485968761.03,53398,9.38,73332.3,-6.93,-8.29,-8.29,0,*58
1485968762.23,53399,9.38,73328.3,-6.95,-8.29,-8.29,0,*5F
1485968763.41,53400,9.38,73332.0,-6.95,-8.21,-8.33,0,*5B
1485968764.63,53401,9.38,73334.3,-6.93,-8.33,-8.33,0,*5F
1485968765.82,53402,9.38,73338.3,-6.95,-8.41,-8.41,0,*5A
1485968767.04,53403,9.38,73340.3,-6.93,-8.29,-8.29,0,*5D
1485968768.23,53404,9.38,73346.3,-6.95,-8.33,-8.33,0,*5C
1485968769.44,53405,9.38,73354.8,-6.93,-8.33,-8.41,0,*5E
1485968770.63,53406,9.38,73348.5,-6.95,-8.21,-8.29,0,*56
1485968771.86,53407,9.38,73356.3,-6.93,-8.17,-8.21,0,*5C
1485968773.05,53408,9.38,73356.5,-6.95,-8.17,-8.17,0,*50
1485968774.3,53409,9.38,73356.3,-6.93,-8.07,-8.17,0,*56
1485968775.58,53410,9.38,73346.5,-6.93,-8.07,-8.07,0,*5F
1485968776.83,53411,9.38,73354.3,-6.95,-8.07,-8.03,0,*5C
1485968778.11,53412,9.38,73344.3,-6.93,-8.07,-8.07,0,*5D
1485968779.35,53413,9.38,73352.5,-6.95,-8.03,-8.03,0,*5A
1485968780.59,53414,9.38,73356.0,-6.95,-7.95,-7.95,0,*5D
1485968781.83,53415,9.38,73356.8,-6.95,-8.03,-8.03,0,*5C
1485968783.11,53416,9.38,73356.0,-6.93,-8.07,-8.03,0,*5D
1485968784.37,53417,9.38,73356.0,-6.93,-8.03,-8.03,0,*58
1485968785.61,53418,9.38,73366.8,-6.93,-8.03,-8.17,0,*52
1485968786.8,53419,9.38,73372.3,-6.95,-8.29,-8.17,0,*5D
1485968788.02,53420,9.38,73366.0,-6.93,-8.21,-8.17,0,*59
1485968789.21,53421,9.38,73362.3,-6.95,-8.29,-8.33,0,*50
1485968790.44,53422,9.38,73366.0,-6.93,-8.17,-8.21,0,*5B
1485968791.63,53423,9.38,73364.0,-6.95,-8.29,-8.29,0,*59
1485968792.85,53424,9.38,73364.3,-6.93,-8.21,-8.21,0,*58
1485968794.05,53425,9.38,73368.8,-6.95,-8.21,-8.21,0,*5F
1485968795.24,53426,9.38,73366.0,-6.95,-8.29,-8.29,0,*5C
1485968796.44,53427,9.38,73364.0,-6.95,-8.45,-8.45,0,*5D
1485968797.64,53428,9.38,73360.3,-6.95,-8.55,-8.45,0,*53
1485968798.85,53429,9.38,73356.5,-6.93,-8.45,-8.55,0,*54
1485968800.08,53430,9.38,73354.8,-6.99,-8.37,-8.51,0,*57
1485968801.26,53431,9.38,73354.0,-6.95,-8.33,-8.33,0,*5A
1485968802.48,53432,9.38,73352.3,-6.93,-8.41,-8.29,0,*51
1485968803.67,53433,9.38,73354.0,-6.95,-8.29,-8.29,0,*58
1485968804.87,53434,9.38,73350.8,-6.95,-8.29,-8.21,0,*57
1485968806.06,53435,9.38,73344.8,-6.95,-8.29,-8.29,0,*5E
1485968807.28,53436,9.38,73336.5,-6.93,-8.41,-8.41,0,*5B
1485968808.48,53437,9.38,73330.5,-6.95,-8.29,-8.29,0,*5C
1485968809.67,53438,9.38,73328.0,-6.95,-8.29,-8.21,0,*5B
1485968810.87,53439,9.38,73324.3,-6.95,-8.21,-8.21,0,*52
1485968812.09,53440,9.38,73320.3,-6.93,-8.17,-8.17,0,*5A
1485968813.28,53441,9.38,73322.8,-6.95,-8.29,-8.21,0,*55
1485968814.54,53442,9.38,73324.3,-6.95,-8.07,-8.07,0,*5E
1485968815.79,53443,9.38,73326.5,-6.95,-8.07,-8.03,0,*5B
1485968817.03,53444,9.38,73322.5,-6.95,-8.07,-7.95,0,*5C
1485968818.23,53445,9.38,73326.0,-6.95,-8.17,-8.17,0,*59
1485968819.48,53446,9.38,73336.8,-6.93,-8.07,-8.21,0,*58
1485968820.68,53447,9.38,73338.3,-6.95,-8.17,-8.21,0,*5E
1485968821.87,53448,9.38,73334.3,-6.95,-8.21,-8.17,0,*51
1485968823.07,53449,9.38,73334.3,-6.95,-8.21,-8.29,0,*5D
1485968824.26,53450,9.38,73334.0,-6.95,-8.21,-8.21,0,*5D
1485968825.46,53451,9.38,73328.3,-6.99,-8.25,-8.25,0,*50
1485968826.66,53452,9.38,73332.0,-6.95,-8.17,-8.21,0,*5A
1485968827.85,53453,9.38,73324.8,-6.95,-8.21,-8.17,0,*5B
1485968829.07,53454,9.38,73324.8,-6.93,-8.21,-8.17,0,*5A
1485968830.29,53455,9.38,73326.3,-6.93,-8.21,-8.21,0,*5E
1485968831.51,53456,9.38,73330.3,-6.93,-8.21,-8.29,0,*55
1485968832.69,53457,9.38,73330.0,-6.95,-8.33,-8.33,0,*5A
1485968833.89,53458,9.38,73328.5,-6.95,-8.41,-8.33,0,*50
1485968835.08,53459,9.38,73324.3,-6.95,-8.41,-8.33,0,*51
1485968836.27,53460,9.38,73316.3,-6.95,-8.29,-8.29,0,*5E
1485968837.47,53461,9.38,73316.0,-6.95,-8.21,-8.21,0,*5F
1485968838.66,53462,9.38,73308.0,-6.95,-8.17,-8.29,0,*51
1485968839.86,53463,9.38,73302.3,-6.95,-8.17,-8.21,0,*58
1485968841.05,53464,9.38,73298.3,-6.99,-8.25,-8.25,0,*56
1485968842.24,53465,9.38,73296.3,-6.99,-8.33,-8.33,0,*57
1485968843.44,53466,9.38,73290.3,-6.99,-8.45,-8.37,0,*51
1485968844.62,53467,9.38,73286.3,-6.95,-8.33,-8.33,0,*59
1485968845.82,53468,9.38,73286.8,-6.95,-8.17,-8.21,0,*53
1485968847.05,53469,9.38,73294.3,-6.95,-8.17,-8.07,0,*56
1485968848.31,53470,9.38,73294.3,-6.95,-8.07,-8.07,0,*5F
1485968849.56,53471,9.38,73298.5,-6.95,-8.07,-8.07,0,*5E
1485968850.8,53472,9.38,73300.0,-6.95,-8.03,-7.95,0,*5D
1485968852.03,53473,9.38,73304.0,-6.95,-8.07,-8.17,0,*5D
1485968853.22,53474,9.38,73308.3,-6.95,-8.21,-8.29,0,*53
1485968854.42,53475,9.38,73304.0,-6.95,-8.21,-8.21,0,*5A
1485968855.61,53476,9.38,73310.3,-6.95,-8.21,-8.29,0,*51
1485968856.8,53477,9.38,73310.8,-6.95,-8.21,-8.29,0,*50
1485968858.0,53478,9.38,73310.3,-6.95,-8.17,-8.17,0,*57
1485968859.22,53479,9.38,73300.5,-6.95,-8.07,-8.17,0,*57
1485968860.42,53480,9.38,73302.8,-6.95,-8.17,-8.21,0,*55
1485968861.67,53481,9.38,73308.8,-6.95,-8.07,-8.07,0,*51
1485968862.93,53482,9.38,73310.3,-6.95,-8.07,-8.07,0,*52
1485968864.15,53483,9.38,73308.5,-6.95,-8.03,-8.17,0,*56
1485968865.36,53484,9.38,73318.0,-6.95,-8.17,-8.03,0,*51
1485968866.59,53485,9.38,73316.3,-6.95,-8.17,-8.07,0,*54
1485968867.84,53486,9.38,73318.8,-6.95,-7.95,-8.03,0,*56
1485968869.08,53487,9.38,73322.0,-6.95,-7.95,-8.03,0,*57
1485968870.32,53488,9.38,73316.0,-6.95,-8.03,-7.95,0,*58
1485968871.56,53489,9.38,73324.3,-6.95,-8.03,-8.03,0,*59
1485968872.84,53490,9.38,73324.3,-6.93,-8.07,-8.07,0,*57
1485968874.08,53491,9.38,73324.8,-6.95,-8.03,-7.95,0,*50
1485968875.32,53492,9.38,73320.8,-6.95,-8.03,-8.03,0,*53
1485968876.58,53493,9.38,73318.5,-6.93,-7.95,-8.03,0,*54
1485968877.82,53494,9.38,73316.5,-6.95,-7.91,-7.95,0,*51
1485968879.07,53495,9.38,73312.0,-6.95,-7.95,-7.95,0,*54
1485968880.31,53496,9.38,73316.3,-6.95,-8.03,-8.07,0,*53
1485968881.6,53497,9.38,73316.5,-6.93,-8.07,-8.07,0,*50
1485968882.82,53498,9.38,73310.8,-6.95,-8.07,-8.17,0,*58
1485968884.08,53499,9.38,73310.0,-6.95,-8.07,-8.07,0,*58
1485968885.27,53500,9.38,73304.8,-6.95,-8.17,-8.17,0,*59
1485968886.5,53501,9.38,73306.8,-6.93,-8.17,-8.21,0,*5B
1485968887.75,53502,9.38,73306.5,-6.95,-8.07,-8.07,0,*5B
1485968888.95,53503,9.38,73306.5,-6.95,-8.17,-8.17,0,*5A
1485968890.14,53504,9.38,73306.5,-6.95,-8.29,-8.29,0,*5D
1485968891.33,53505,9.38,73308.8,-6.95,-8.41,-8.33,0,*59
1485968892.53,53506,9.38,73314.0,-6.95,-8.21,-8.21,0,*5F
1485968893.75,53507,9.31,73310.3,-6.95,-8.07,-8.17,0,*5F
1485968895.0,53508,9.38,73316.0,-6.95,-7.95,-8.07,0,*55
1485968896.26,53509,9.38,73314.3,-6.95,-8.07,-8.07,0,*50
1485968897.46,53510,9.31,73310.3,-6.95,-8.17,-8.21,0,*5D
1485968898.65,53511,9.38,73314.5,-6.95,-8.17,-8.17,0,*59
1485968899.87,53512,9.38,73308.3,-6.93,-8.29,-8.29,0,*5C
1485968901.07,53513,9.38,73308.0,-6.95,-8.21,-8.21,0,*5B
1485968902.26,53514,9.31,73310.0,-6.95,-8.21,-8.21,0,*5C
1485968903.46,53515,9.38,73318.8,-6.95,-8.17,-8.17,0,*5D
1485968904.65,53516,9.38,73314.8,-6.95,-8.17,-8.17,0,*5E
1485968905.88,53517,9.38,73318.3,-6.95,-8.17,-8.07,0,*5E
1485968907.12,53518,9.38,73322.0,-6.95,-8.03,-8.03,0,*50
1485968908.38,53519,9.38,73324.3,-6.95,-8.07,-8.07,0,*51
1485968909.6,53520,9.31,73322.8,-6.95,-8.07,-8.17,0,*5A
1485968910.85,53521,9.38,73326.5,-6.95,-8.03,-8.07,0,*5E
1485968912.09,53522,9.38,73320.3,-6.95,-8.03,-8.03,0,*59
1485968913.3,53523,9.38,73320.3,-6.95,-8.03,-8.17,0,*5D
1485968914.59,53524,9.38,73320.8,-6.93,-8.07,-8.07,0,*59
1485968915.84,53525,9.31,73318.0,-6.95,-8.07,-8.07,0,*5E